Stations météo

Publicité
Konstanz, Allemagne (10929): Température de l'air & dewpoint: 18.10.2018 00:00:00 - 24.10.2018 00:00:00 (CEST)Konstanz, Allemagne (10929): Température de l'air 5cm & Température de l'air -5cm: 18.10.2018 00:00:00 - 24.10.2018 00:00:00 (CEST)Konstanz, Allemagne (10929): Température de l'air -20cm & Température de l'air -100cm: 18.10.2018 00:00:00 - 24.10.2018 00:00:00 (CEST)Konstanz, Allemagne (10929): Vitesse du vent & gusts: 18.10.2018 00:00:00 - 24.10.2018 00:00:00 (CEST)Konstanz, Allemagne (10929): Direction du vent: 18.10.2018 00:00:00 - 24.10.2018 00:00:00 (CEST)Konstanz, Allemagne (10929): reduced air pressure: 18.10.2018 00:00:00 - 24.10.2018 00:00:00 (CEST)Konstanz, Allemagne (10929): visibility: 18.10.2018 00:00:00 - 24.10.2018 00:00:00 (CEST)Konstanz, Allemagne (10929): Ensoleillement: 18.10.2018 00:00:00 - 24.10.2018 00:00:00 (CEST)Konstanz, Allemagne (10929): Quantités de précipitations: 18.10.2018 00:00:00 - 24.10.2018 00:00:00 (CEST)
Date & Time tt [°C] td [°C] tt 5cm [°C] tt -5cm [°C] tt -20cm [°C] tt -100cm [°C] ff [km/h] ff [knt] fx [km/h] fx [knt] dd ppp [hPa] vv [km] sd [min] rr [mm]
24.10.2018 00:00:00 13,0 3,0 12,6 12,1 12,9 15,4 18 10 33 18 W 1026,3 70 0 0,0
23.10.2018 23:00:00 12,9 5,6 12,5 12,1 13,0 15,4 13 7 30 16 W 1026,5 18 0 0,0
23.10.2018 22:00:00 13,2 5,5 12,6 12,1 13,0 15,4 19 10 35 19 W 1026,4 20 0 0,0
23.10.2018 21:00:00 13,0 5,3 12,1 12,2 13,1 15,4 17 9 34 18 W 1026,4 20 0 0,0
23.10.2018 20:00:00 13,0 4,8 11,3 12,6 13,1 15,4 17 9 33 18 WSW 1026,0 16 0 0,0
23.10.2018 19:00:00 12,9 4,2 12,5 12,9 13,1 15,5 13 7 24 13 W 1026,2 23 0 0,0
23.10.2018 18:00:00 12,8 5,0 12,4 13,4 13,0 15,5 7 4 21 12 W 1026,0 19 0 0,0
23.10.2018 17:00:00 12,9 5,0 13,0 13,9 12,9 15,5 11 6 22 12 WSW 1025,9 17 0 0,0
23.10.2018 16:00:00 13,0 5,7 13,4 14,5 12,5 15,5 10 5 19 11 WSW 1026,8 16 10 0,0
23.10.2018 15:00:00 13,4 4,8 15,5 14,9 12,1 15,5 12 6 23 12 W 1027,7 17 60 0,0
23.10.2018 14:00:00 12,2 5,0 14,9 13,4 11,7 15,5 10 6 19 10 W 1028,7 13 35 0,0
23.10.2018 13:00:00 10,4 5,5 11,5 12,2 11,4 15,5 4 2 13 7 W 1030,0 12 15 0,0
23.10.2018 12:00:00 9,8 5,0 12,1 11,2 11,1 15,5 8 4 13 7 WSW 1030,5 12 50 0,0
23.10.2018 11:00:00 8,4 4,7 9,0 9,7 11,1 15,5 6 4 11 6 NW 1030,9 11 56 0,0
23.10.2018 10:00:00 6,8 4,8 6,2 8,2 11,2 15,5 6 3 11 6 W 1030,6 9 32 0,0
23.10.2018 09:00:00 5,2 4,1 4,3 7,6 11,3 15,6 8 4 10 6 W 1030,7 5 0 0,0
23.10.2018 08:00:00 4,9 3,9 2,8 7,6 11,5 15,6 5 3 10 6 W 1031,2 7 0 0,0
23.10.2018 07:00:00 5,0 3,5 3,6 7,9 11,8 15,6 8 4 14 8 W 1031,3 11 0 0,0
23.10.2018 06:00:00 6,2 4,2 4,4 8,1 12,0 15,6 9 5 12 7 N 1031,2 15 0 0,0
23.10.2018 05:00:00 5,4 3,5 2,7 8,5 12,2 15,6 4 2 9 5 WSW 1031,0 19 0 0,0
23.10.2018 04:00:00 6,8 3,5 4,7 8,9 12,5 15,6 6 3 10 6 N 1031,7 25 0 0,0
23.10.2018 03:00:00 7,0 4,0 4,2 9,4 12,7 15,6 5 3 13 7 SW 1031,5 27 0 0,0
23.10.2018 02:00:00 8,4 3,9 6,5 9,8 12,9 15,6 9 5 16 8 N 1031,1 31 0 0,0
23.10.2018 01:00:00 8,1 5,0 5,4 10,3 13,2 15,6 7 4 11 6 N 1031,1 30 0 0,0
23.10.2018 00:00:00 8,9 4,3 6,1 10,9 13,4 15,7 5 3 9 5 ENE 1031,2 37 0 0,0
22.10.2018 23:00:00 9,8 4,6 7,3 11,7 13,5 15,7 5 3 10 6 NE 1030,9 38 0 0,0
22.10.2018 22:00:00 10,9 4,6 10,2 12,1 13,7 15,7 5 3 13 7 NNE 1030,4 39 0 0,0
22.10.2018 21:00:00 10,7 4,7 9,4 12,3 13,9 15,7 6 3 9 5 N 1029,8 41 0 0,0
22.10.2018 20:00:00 11,3 4,2 9,2 12,7 14,0 15,7 5 3 14 8 NE 1029,5 41 0 0,0
22.10.2018 19:00:00 11,8 3,4 9,7 13,5 14,1 15,7 8 4 18 10 ENE 1028,5 42 18 0,0
22.10.2018 18:00:00 12,9 3,4 11,7 14,9 14,1 15,7 9 5 19 10 ENE 1027,8 50 60 0,0
22.10.2018 17:00:00 14,5 3,1 13,7 16,8 13,7 15,7 10 5 27 14 ENE 1026,9 50 60 0,0
22.10.2018 16:00:00 14,9 3,0 16,8 17,7 13,2 15,7 5 3 14 8 NE 1026,6 42 60 0,0
22.10.2018 15:00:00 14,1 3,0 17,5 17,2 12,6 15,8 4 2 12 7 E 1026,6 32 60 0,0
22.10.2018 14:00:00 12,4 3,8 16,1 15,8 12,0 15,8 8 5 13 7 SSW 1027,2 27 60 0,0
22.10.2018 13:00:00 11,5 3,4 15,1 14,0 11,5 15,8 6 4 13 7 SSE 1027,6 26 60 0,0
22.10.2018 12:00:00 9,7 2,7 12,3 11,9 11,2 15,8 5 3 11 6 ESE 1027,7 29 60 0,0
22.10.2018 11:00:00 9,0 2,7 9,7 9,4 11,1 15,8 3 2 14 8 NNE 1027,6 31 60 0,0
22.10.2018 10:00:00 6,4 2,5 5,6 7,4 11,3 15,8 6 3 13 7 N 1027,9 25 60 0,0
22.10.2018 09:00:00 4,2 2,5 2,4 7,0 11,5 15,8 5 3 10 5 N 1027,6 19 24 0,0
22.10.2018 08:00:00 3,3 1,7 0,8 7,1 11,8 15,8 4 2 9 5 N 1027,2 22 0 0,0
22.10.2018 07:00:00 4,1 2,1 2,3 7,4 12,0 15,8 6 3 13 7 N 1026,6 25 0 0,0
22.10.2018 06:00:00 3,7 2,0 1,1 7,8 12,3 15,8 4 2 7 4 N 1026,5 32 0 0,0
22.10.2018 05:00:00 4,1 2,1 1,6 8,2 12,6 15,8 4 2 9 5 NW 1026,5 40 0 0,0
22.10.2018 04:00:00 4,6 2,3 1,7 8,6 12,9 15,8 4 2 9 5 N 1026,0 40 0 0,0
22.10.2018 03:00:00 5,7 2,4 2,5 9,1 13,1 15,8 4 2 14 7 NNE 1026,2 51 0 0,0
22.10.2018 02:00:00 6,9 2,3 4,1 9,6 13,4 15,8 6 3 12 6 NE 1026,1 55 0 0,0
22.10.2018 01:00:00 7,8 2,4 5,0 10,1 13,7 15,9 7 4 17 9 NE 1025,8 58 0 0,0
22.10.2018 00:00:00 8,5 2,1 7,1 10,7 14,0 15,9 9 5 23 12 NE 1025,9 62 0 0,0
21.10.2018 23:00:00 9,3 2,3 7,6 11,2 14,3 15,9 10 5 22 12 NE 1026,0 58 0 0,0
21.10.2018 22:00:00 9,5 3,0 7,5 11,8 14,6 15,9 8 5 21 11 NE 1025,8 61 0 0,0
21.10.2018 21:00:00 10,5 3,2 8,7 12,6 14,9 15,9 10 5 20 11 NE 1025,6 59 0 0,0
21.10.2018 20:00:00 11,1 3,9 9,4 13,5 15,2 15,9 11 6 21 11 NE 1025,6 45 0 0,0
21.10.2018 19:00:00 12,1 3,8 10,8 14,6 15,4 15,9 11 6 24 13 NE 1025,3 45 19 0,0
21.10.2018 18:00:00 13,7 4,0 12,6 16,2 15,3 15,9 12 7 24 13 ENE 1024,9 55 60 0,0
21.10.2018 17:00:00 15,1 4,5 14,8 18,2 15,0 15,9 13 7 24 13 ENE 1024,6 35 60 0,0
21.10.2018 16:00:00 16,7 6,2 18,8 19,1 14,6 15,9 9 5 24 13 NE 1024,5 22 60 0,0
21.10.2018 15:00:00 16,6 6,4 19,9 18,5 14,0 15,9 11 6 24 13 ENE 1024,8 22 60 0,0
21.10.2018 14:00:00 15,9 6,4 19,2 17,5 13,5 15,9 6 3 12 7 NNE 1025,3 19 60 0,0
21.10.2018 13:00:00 14,7 6,2 17,2 15,5 13,1 16,0 6 3 11 6 NE 1026,3 16 59 0,0
21.10.2018 12:00:00 12,5 6,2 12,7 13,6 12,8 16,0 5 3 9 5 NNE 1027,3 11 58 0,0
21.10.2018 11:00:00 11,0 7,9 11,3 11,9 12,7 16,0 4 2 7 4 WNW 1027,8 7 9 0,0
21.10.2018 10:00:00 8,9 7,9 9,4 10,8 12,7 16,0 4 2 7 4 WNW 1028,3 3,3 0 0,0
21.10.2018 09:00:00 7,8 7,4 8,0 10,2 12,8 16,0 6 3 10 5 NW 1028,3 0,7 0 0,0
21.10.2018 08:00:00 7,1 6,6 7,0 10,1 12,9 16,0 7 4 9 5 W 1028,1 2,1 0 0,0
21.10.2018 07:00:00 7,4 7,2 7,2 10,2 13,0 16,0 0 0 6 3 N 1028,2 0,1 0 0,0
21.10.2018 06:00:00 7,2 7,0 7,0 10,1 13,2 16,0 3 2 8 5 W 1028,4 0,1 0 0,0
21.10.2018 05:00:00 7,0 6,6 6,4 10,0 13,4 16,0 5 3 11 6 W 1028,3 0,1 0 0,0
21.10.2018 04:00:00 8,6 7,9 5,9 10,3 13,6 16,0 5 3 8 5 N 1028,1 2,6 0 0,0
21.10.2018 03:00:00 8,6 7,9 6,3 10,7 13,9 16,0 5 3 9 5 WNW 1028,3 1,8 0 0,0
21.10.2018 02:00:00 9,4 8,2 6,7 11,1 14,1 16,0 5 3 9 5 WNW 1028,7 3,8 0 0,0
21.10.2018 01:00:00 9,2 8,2 7,1 11,5 14,4 16,0 4 2 9 5 N 1029,1 3,2 0 0,0
21.10.2018 00:00:00 10,1 9,0 8,5 12,0 14,6 16,0 5 3 11 6 N 1029,2 3,4 0 0,0
20.10.2018 23:00:00 10,7 10,0 8,8 12,5 14,8 16,0 6 3 12 7 N 1029,2 2,4 0 0,0
20.10.2018 22:00:00 11,3 10,3 9,7 13,0 15,1 16,1 9 5 11 6 N 1028,8 2,4 0 0,0
20.10.2018 21:00:00 11,6 10,0 9,5 13,6 15,3 16,1 8 5 12 6 N 1028,4 4,0 0 0,0
20.10.2018 20:00:00 11,8 10,1 9,2 14,3 15,5 16,1 0 0 7 4 N 1028,0 3,9 0 0,0
20.10.2018 19:00:00 13,0 9,8 10,3 15,4 15,6 16,1 4 2 6 4 NE 1027,8 6 0 0,0
20.10.2018 18:00:00 15,2 10,1 13,1 16,8 15,5 16,1 4 2 8 4 SSE 1027,0 7 51 0,0
20.10.2018 17:00:00 16,6 10,4 16,2 18,3 15,2 16,1 5 3 10 5 SSE 1026,8 7 60 0,0
20.10.2018 16:00:00 16,5 10,5 18,8 18,9 14,8 16,1 6 3 13 7 S 1027,0 6 60 0,0
20.10.2018 15:00:00 16,2 10,2 19,1 18,4 14,3 16,1 7 4 12 7 S 1027,3 5 60 0,0
20.10.2018 14:00:00 15,2 10,2 18,2 16,8 13,9 16,1 7 4 11 6 S 1027,8 4,6 50 0,0
20.10.2018 13:00:00 13,5 9,8 14,9 14,8 13,6 16,1 4 2 10 5 NE 1028,5 4,0 4 0,0
20.10.2018 12:00:00 12,3 9,9 13,5 13,4 13,5 16,1 6 3 13 7 N 1028,8 3,0 0 0,0
20.10.2018 11:00:00 11,1 9,4 12,0 12,7 13,4 16,1 5 3 9 5 NNE 1028,6 2,6 0 0,0
20.10.2018 10:00:00 10,6 9,1 11,1 12,1 13,4 16,2 5 3 9 5 NNE 1028,8 2,2 0 0,0
20.10.2018 09:00:00 10,2 9,4 10,3 11,7 13,4 16,2 3 1 8 4 NNW 1028,3 1,4 0 0,0
20.10.2018 08:00:00 10,1 9,3 9,8 11,6 13,5 16,2 3 2 16 9 WNW 1027,5 1,4 0 0,0
20.10.2018 07:00:00 9,7 9,0 9,5 11,5 13,6 16,2 8 4 13 7 N 1026,6 1,4 0 0,0
20.10.2018 06:00:00 9,4 8,8 8,0 11,6 13,6 16,2 4 2 9 5 W 1026,2 1,4 0 0,0
20.10.2018 05:00:00 9,8 9,3 9,7 11,7 13,7 16,2 6 3 10 5 NW 1025,7 0,7 0 0,0
20.10.2018 04:00:00 10,0 9,5 9,8 11,4 13,9 16,2 6 3 8 5 NW 1025,4 1,0 0 0,0
20.10.2018 03:00:00 9,9 9,0 8,2 11,8 14,0 16,2 5 3 8 4 NNW 1025,2 1,6 0 0,0
20.10.2018 02:00:00 10,5 9,7 10,1 11,9 14,1 16,2 4 2 8 4 NNW 1025,2 1,9 0 0,0
20.10.2018 01:00:00 10,8 10,0 10,1 11,6 14,3 16,2 5 3 5 3 NNW 1024,9 2,5 0 0,0
20.10.2018 00:00:00 9,7 8,9 7,1 11,7 14,6 16,2 4 2 6 3 SW 1024,8 2,9 0 0,0
19.10.2018 23:00:00 9,7 8,7 7,3 12,2 14,8 16,2 5 3 7 4 W 1024,6 2,7 0 0,0
19.10.2018 22:00:00 10,5 9,1 8,2 12,8 15,1 16,2 3 2 6 3 W 1024,1 3,6 0 0,0
19.10.2018 21:00:00 11,8 9,8 9,1 13,4 15,3 16,2 4 2 11 6 N 1023,4 4,3 0 0,0
19.10.2018 20:00:00 12,1 9,5 9,5 14,1 15,5 16,3 3 2 15 8 NE 1022,7 5 0 0,0
19.10.2018 19:00:00 13,2 10,4 10,1 15,2 15,5 16,3 5 3 8 4 ESE 1022,1 6 0 0,0
19.10.2018 18:00:00 14,9 10,2 13,6 16,7 15,4 16,3 3 2 7 4 E 1020,9 7 54 0,0
19.10.2018 17:00:00 16,9 10,0 15,9 18,1 15,1 16,3 3 1 8 5 N 1020,4 7 60 0,0
19.10.2018 16:00:00 15,7 9,7 17,4 18,5 14,6 16,3 6 4 11 6 S 1020,6 6 60 0,0
19.10.2018 15:00:00 14,4 9,1 18,3 17,4 14,2 16,3 6 3 13 7 S 1021,0 6 59 0,0
19.10.2018 14:00:00 14,6 10,1 17,7 15,9 13,8 16,3 8 4 16 9 SE 1021,3 5 35 0,0
19.10.2018 13:00:00 13,0 9,5 14,4 14,5 13,6 16,3 8 4 10 6 S 1022,0 5 0 0,0
19.10.2018 12:00:00 12,9 8,9 14,3 13,3 13,4 16,3 2 1 8 5 NNE 1022,2 6 0 0,0
19.10.2018 11:00:00 12,0 8,7 12,4 12,2 13,3 16,3 3 1 7 4 WNW 1022,5 4,8 1 0,0
19.10.2018 10:00:00 11,5 8,6 10,1 11,0 13,4 16,3 3 1 6 4 N 1022,1 4,5 16 0,0
19.10.2018 09:00:00 9,0 7,9 7,4 10,4 13,6 16,3 4 2 9 5 WNW 1022,2 3,9 0 0,0
19.10.2018 08:00:00 8,3 7,4 5,5 10,4 13,8 16,3 3 2 8 4 NW 1021,6 3,8 0 0,0
19.10.2018 07:00:00 9,4 8,1 7,0 10,8 14,0 16,3 6 3 10 5 N 1020,7 4,8 0 0,0
19.10.2018 06:00:00 9,9 8,3 7,1 11,2 14,2 16,3 3 1 12 6 ENE 1020,4 6 0 0,0
19.10.2018 05:00:00 11,1 8,7 9,0 11,6 14,4 16,3 6 3 16 9 NNE 1019,7 7 0 0,0
19.10.2018 04:00:00 11,0 8,9 8,9 11,8 14,6 16,3 8 4 16 8 NNE 1019,9 7 0 0,0
19.10.2018 03:00:00 12,5 9,3 10,5 12,2 14,8 16,3 9 5 19 10 NE 1019,7 10 0 0,0
19.10.2018 02:00:00 12,4 9,2 9,7 12,5 15,1 16,3 7 4 16 9 NE 1019,9 11 0 0,0
19.10.2018 01:00:00 12,9 9,5 9,9 13,0 15,3 16,4 5 3 13 7 N 1019,8 13 0 0,0
19.10.2018 00:00:00 13,8 9,6 11,5 13,5 15,5 16,4 7 4 20 11 NNE 1019,7 13 0 0,0
18.10.2018 23:00:00 14,2 9,7 12,5 13,8 15,7 16,4 10 6 23 12 NE 1019,6 13 0 0,0
18.10.2018 22:00:00 14,7 9,6 13,0 14,2 15,9 16,4 11 6 20 11 NE 1019,6 14 0 0,0
18.10.2018 21:00:00 15,2 9,5 12,4 14,7 16,1 16,4 8 5 19 10 ENE 1019,1 18 0 0,0
18.10.2018 20:00:00 15,5 8,9 13,0 15,4 16,3 16,4 8 5 16 9 NE 1018,5 24 0 0,0
18.10.2018 19:00:00 15,3 9,5 11,7 16,4 16,4 16,4 6 3 13 7 ENE 1018,2 24 0 0,0
18.10.2018 18:00:00 17,7 9,1 15,7 17,8 16,3 16,4 8 4 23 13 NE 1017,1 26 29 0,0
18.10.2018 17:00:00 19,4 8,9 18,7 19,1 16,1 16,4 8 4 19 11 ENE 1016,7 31 60 0,0
18.10.2018 16:00:00 19,8 9,2 20,9 19,6 15,7 16,4 13 7 28 15 NE 1016,7 26 60 0,0
18.10.2018 15:00:00 20,0 9,0 21,8 19,2 15,2 16,4 14 8 29 15 NE 1016,7 25 60 0,0
18.10.2018 14:00:00 18,0 9,1 20,3 18,3 14,7 16,4 5 3 12 6 E 1017,5 14 60 0,0
18.10.2018 13:00:00 16,6 9,7 19,8 16,9 14,2 16,4 4 2 11 6 S 1018,3 9 60 0,0
18.10.2018 12:00:00 15,3 9,2 17,1 15,0 14,0 16,4 4 2 7 4 ESE 1019,0 9 60 0,0
18.10.2018 11:00:00 13,4 9,4 14,0 13,3 13,9 16,4 4 2 9 5 S 1019,4 8 60 0,0
18.10.2018 10:00:00 12,1 9,1 10,9 11,9 13,9 16,4 4 2 6 4 SW 1019,3 10 51 0,0
18.10.2018 09:00:00 10,0 8,9 8,5 11,1 14,1 16,4 5 3 5 3 W 1019,4 7 0 0,0
18.10.2018 08:00:00 9,5 8,4 6,9 11,2 14,3 16,4 5 3 5 3 WNW 1019,1 10 0 0,0
18.10.2018 07:00:00 9,9 8,4 7,4 11,6 14,5 16,4 4 2 5 3 WSW 1018,7 12 0 0,0
18.10.2018 06:00:00 10,3 8,7 7,8 11,9 14,7 16,4 5 3 7 4 W 1018,5 11 0 0,0
18.10.2018 05:00:00 10,5 8,7 8,2 12,1 14,9 16,4 5 3 6 3 WSW 1018,4 16 0 0,0
18.10.2018 04:00:00 10,8 9,3 8,3 12,3 15,1 16,5 0 0 3 2 N 1018,4 16 0 0,0
18.10.2018 03:00:00 10,9 9,4 8,6 12,7 15,3 16,5 0 0 5 3 N 1018,6 17 0 0,0
18.10.2018 02:00:00 11,0 9,1 8,5 12,9 15,5 16,5 4 2 7 4 WSW 1018,7 18 0 0,0
18.10.2018 01:00:00 12,0 9,5 9,0 13,3 15,8 16,5 3 2 6 3 WSW 1018,6 20 0 0,0
18.10.2018 00:00:00 12,8 8,7 10,5 13,8 16,0 16,5 6 3 14 8 W 1018,5 21 0 0,0

tt = Température de l'air
td = dewpoint
tt 5cm = Température de l'air 5cm
tt -5cm = Température de l'air -5cm
tt -20cm = Température de l'air -20cm
tt -100cm = Température de l'air -100cm
ff = Vitesse du vent
fx = gusts
dd = Direction du vent
ppp = reduced air pressure
vv = visibility
sd = Ensoleillement
rr = Quantités de précipitations

stations d'obs. à proximité